Regional Weather Roundup
Issued by NWS

Home | Current Version | Previous Version | Graphics & Text | Print | Product List | Glossary On
Versions: 1 2 3 4 5 6 7 8 9 10 11 12 13 14 15 16 17 18 19 20 21 22 23 24 25 26 27
000
ASUS45 KCYS 220510
RWRWY

WYOMING REGIONAL WEATHER ROUNDUP
NATIONAL WEATHER SERVICE CHEYENNE WY
1100 PM MDT MON AUG 21 2017

NOTE:  "FAIR" INDICATES FEW OR NO CLOUDS BELOW 12,000 FEET
WITH NO SIGNIFICANT WEATHER AND/OR OBSTRUCTIONS TO VISIBILITY.

WYZ001-220600-
YELLOWSTONE NATIONAL PARK

CITY           SKY/WX    TMP DP  RH WIND       PRES   REMARKS
LK YELLOWSTONE   N/A     45  36  70 CALM      30.42S
W YELLOWSTONE  NOT AVBL

$$
WYZ002>013-054>058-071-098>099-220600-
NORTHERN WYOMING

CITY           SKY/WX    TMP DP  RH WIND       PRES   REMARKS
JACKSON        FAIR      51  32  48 NE3       30.31S
CODY           FAIR      59  34  39 S3        30.27S
GREYBULL         N/A     63  36  36 VRB3      30.16R
WORLAND        FAIR      62  40  44 NW3       30.19R
SHERIDAN       FAIR      51  41  68 S5        30.23R
BUFFALO        FAIR      58  34  40 W9        30.29R
GILLETTE       FAIR      51  34  52 W3        30.25R
HULETT         FAIR      54  37  54 CALM      30.26S
NEWCASTLE      FAIR      57  32  38 E7G17     30.25S

$$
WYZ014>020-022>026-101>103-220600-
CENTRAL WYOMING

CITY           SKY/WX    TMP DP  RH WIND       PRES   REMARKS
BIG PINEY      FAIR      53  25  33 N13       30.34S
PINEDALE       FAIR      46  28  49 NW8       30.36S
DUBOIS         FAIR      54  28  37 W3        30.37R
LANDER           N/A    N/A N/A N/A MISG      30.29R
RIVERTON       FAIR      67  37  33 E10       30.27R
CASPER         FAIR      59  35  40 NE10      30.27R
DOUGLAS        FAIR      59  41  51 SE9       30.28R

$$
WYZ021-027>030-104>119-220600-
SOUTHERN WYOMING

CITY           SKY/WX    TMP DP  RH WIND       PRES   REMARKS
EVANSTON       FAIR      68  34  28 CALM      30.36S
KEMMERER         N/A     59  28  31 NW10      30.37R
FORT BRIDGER   FAIR      63  30  29 W9        30.38R
ROCK SPRINGS   FAIR      67  28  23 N7        30.31R
RAWLINS        FAIR      62  36  37 NE12      30.31S
SARATOGA       FAIR      57  36  44 S18       30.31S
LARAMIE        FAIR      58  43  57 SE7       30.37R
CHEYENNE       FAIR      59  43  55 E5        30.33S
TORRINGTON     FAIR      60  41  49 E6        30.23R
PINE BLUFFS    FAIR      61  45  55 NE6       30.29S

$$




USA.gov is the U.S. government's official web portal to all federal, state and local government web resources and services.